Regional Weather Roundup
Issued by NWS

Home | Current Version | Previous Version | Text Only | Print | Product List | Glossary On
Versions: 1 2 3 4 5 6 7 8 9 10 11 12 13 14 15 16 17 18 19 20 21 22 23 24 25 26 27 28 29 30 31 32 33 34 35 36 37 38 39 40 41 42 43 44 45 46 47 48 49 50
000
ASUS46 KSEW 041610
RWRWA

WASHINGTON REGIONAL WEATHER ROUNDUP
NATIONAL WEATHER SERVICE SEATTLE WA
800 AM PST WED MAR 04 2015

NOTE:"FAIR" INDICATES FEW OR NO CLOUDS BELOW 12,000 FEET WITH NO
SIGNIFICANT WEATHER AND/OR OBSTRUCTIONS TO VISIBILITY.

WAZ505-507>509-041700-
SEATTLE, TACOMA, EVERETT, AND VICINITY

CITY           SKY/WX    TMP DP  RH WIND       PRES   REMARKS
EVERETT        SUNNY     36  26  67 CALM      30.28R
BOEING FIELD   SUNNY     33  26  75 SE3       30.31R
RENTON         SUNNY     31  25  78 SE3       30.31R
SEATAC AIRPORT SUNNY     36  21  54 SE5       30.29R
JBLM-MCCHORD   NOT AVBL
PUYALLUP       NOT AVBL
BREMERTON      SUNNY     28  28 100 CALM      30.31R
JBLM-FT LEWIS  NOT AVBL
TACOMA NARROWS SUNNY     34  29  82 CALM      30.30R
$$

WAZ001-503-506-510-514-515-041700-
NORTH INTERIOR

CITY           SKY/WX    TMP DP  RH WIND       PRES   REMARKS
BELLINGHAM     SUNNY     29  23  78 CALM      30.30R
FRIDAY HARBOR  SUNNY     36  33  89 CALM      30.31R
EASTSOUND      SUNNY     32  28  86 CALM      30.29R
PORT ANGELES   SUNNY     33  27  78 CALM      30.29R
NAS WHIDBEY    MOSUNNY   33  28  81 SE7       30.31R
ARLINGTON      SUNNY     28  23  80 CALM      30.32R
BURLINGTON     SUNNY     32  28  86 E3        30.31S
$$

WAZ020-022-039-040-504-511-512-041700-
SOUTHWEST INTERIOR

CITY           SKY/WX    TMP DP  RH WIND       PRES   REMARKS
SHELTON        SUNNY     27  25  92 CALM      30.27S
OLYMPIA        SUNNY     27  25  92 CALM      30.30R
CHEHALIS       FAIR      28  28 100 CALM      30.30R
KELSO          SUNNY     28  25  86 CALM      30.33R
VANCOUVER      SUNNY     32  27  81 CALM      30.29R
SCAPPOOSE, OR  SUNNY     31  27  85 CALM      30.28R
PORTLAND, OR   SUNNY     35  30  82 CALM      30.29R
$$

WAZ021-516-517-041700-
WASHINGTON COAST

CITY           SKY/WX    TMP DP  RH WIND       PRES   REMARKS
FORKS          CLEAR     30  28  92 CALM      30.28S
HOQUIAM        SUNNY     32  30  92 E9        30.28R
ASTORIA, OR    SUNNY     34  30  85 CALM      30.27R
$$

WAZ019-023-024-040-518-519-041700-
CASCADE MOUNTAINS AND COLUMBIA GORGE

CITY           SKY/WX    TMP DP  RH WIND       PRES   REMARKS
TROUTDALE, OR  SUNNY     36  30  79 W3        30.28R
THE DALLES, OR SUNNY     30  23  75 CALM      30.35R
$$

WAZ026-027-041>044-520-521-041700-
EAST SLOPES

CITY           SKY/WX    TMP DP  RH WIND       PRES   REMARKS
OMAK           SUNNY     28   9  44 N5        30.31R
WENATCHEE      SUNNY     31  20  63 CALM      30.29R
ELLENSBURG     SUNNY     29  21  72 CALM      30.26R
YAKIMA         SUNNY     28  21  75 CALM      30.31R
$$

WAZ028-034-035-041700-
COLUMBIA BASIN

CITY           SKY/WX    TMP DP  RH WIND       PRES   REMARKS
EPHRATA        SUNNY     29  19  66 N5        30.28R
MOSES LAKE     SUNNY     26  17  68 N5        30.30R
PASCO          SUNNY     25  19  78 CALM      30.34R
HERMISTON, OR  SUNNY     28  21  75 CALM      30.31R
$$

WAZ036>038-041700-
NORTHEAST WASHINGTON

CITY           SKY/WX    TMP DP  RH WIND       PRES   REMARKS
SPOKANE GEIGER MOSUNNY   25  14  63 SE3       30.24R
SPOKANE FELTS  SUNNY     23  14  68 CALM      30.29R
FAIRCHILD AFB  NOT AVBL
COEURDALENE,ID SUNNY     21  18  86 N5        30.26R
DEER PARK      SUNNY     23  16  74 CALM      30.27R
$$

WAZ029>033-041700-
SOUTHEAST WASHINGTON

CITY           SKY/WX    TMP DP  RH WIND       PRES   REMARKS
PULLMAN        SUNNY     27  18  69 E8        30.27R
LEWISTON, ID   SUNNY     29  19  66 E5        30.32R
WALLA WALLA    SUNNY     38  12  34 E7        30.28R
PENDLETON, OR  SUNNY     30  14  51 SE9       30.27R
$$


USA.gov is the U.S. government's official web portal to all federal, state and local government web resources and services.